Regional Weather Roundup
Issued by NWS

Home | Current Version | Previous Version | Graphics & Text | Print | Product List | Glossary On
Versions: 1 2 3 4 5 6 7 8 9 10 11 12 13 14 15 16 17 18 19 20 21 22 23 24 25 26 27 28 29 30 31 32 33 34 35 36 37 38 39 40 41 42 43 44 45 46 47 48 49 50
000
ASUS43 KLSX 301207
RWRMO

WEATHER SUMMARY FOR MISSOURI
NATIONAL WEATHER SERVICE SPRINGFIELD MO
700 AM CDT THU JUL 30 2015

NOTE: "FAIR" INDICATES FEW OR NO CLOUDS BELOW 12,000 FEET WITH NO
       SIGNIFICANT WEATHER AND/OR OBSTRUCTIONS TO VISIBILITY.
       CURRENT SKY AND/OR WEATHER CONDITIONS ARE NOT AVAILABLE FOR
       CHILLICOTHE AND FARMINGTON.

MOZ001>031-035>038-043-044-053-054-301300-
...NORTHERN AND WESTERN MISSOURI...

CITY           SKY/WX    TMP DP  RH WIND       PRES   REMARKS
KANSAS CTY INT PTCLDY    67  63  87 N3        30.19R
6HR MIN TEMP:  64; 6HR MAX TEMP:  71;

KANSAS C DTWN  CLEAR     68  66  93 CALM      30.18R
6HR MIN TEMP:  67; 6HR MAX TEMP:  73;

LEE`S SUMMIT   CLEAR     67  66  97 CALM      30.19R
6HR MIN TEMP:  65; 6HR MAX TEMP:  71;

ST JOSEPH      FOG       62  62 100 CALM      30.19R VSB 1/4
6HR MIN TEMP:  62; 6HR MAX TEMP:  65;

CHILLICOTHE      N/A     64  63  96 CALM      30.19R
6HR MIN TEMP:  63; 6HR MAX TEMP:  66;

KIRKSVILLE     CLEAR     64  59  83 W6        30.17S
6HR MIN TEMP:  61; 6HR MAX TEMP:  65;


$$
MOZ066>068-077>081-088>096-101>105-301300-
...SOUTHWEST MISSOURI...

CITY           SKY/WX    TMP DP  RH WIND       PRES   REMARKS
SPRINGFIELD    PTCLDY    69  64  84 CALM      30.17S
6HR MIN TEMP:  69; 6HR MAX TEMP:  75;

JOPLIN         PTCLDY    73  66  78 E6        30.16R
6HR MIN TEMP:  72; 6HR MAX TEMP:  77;


$$
MOZ032>034-039>042-045>050-055>058-069>072-301300-
...CENTRAL MISSOURI...

CITY           SKY/WX    TMP DP  RH WIND       PRES   REMARKS
COLUMBIA       CLEAR     66  64  93 NW3       30.17S
6HR MIN TEMP:  64; 6HR MAX TEMP:  71;

JEFFERSON CITY FOG       65  64  97 CALM      30.17R VSB<1/4
6HR MIN TEMP:  64; 6HR MAX TEMP:  69;

ROLLA          CLEAR     64  60  87 CALM      30.17R
6HR MIN TEMP:  61; 6HR MAX TEMP:  67;

SEDALIA        CLEAR     67  63  87 SW3       30.19R
6HR MIN TEMP:  63; 6HR MAX TEMP:  70;

WHITEMAN AFB   CLEAR     62  62  98 CALM      30.17R
WARRENSBURG    CLEAR     63  61  94 CALM      30.17S FOG
OSAGE BEACH    CLEAR     63  61  94 CALM      30.18S

$$
MOZ051-052-059>065-301300-
...EAST CENTRAL MISSOURI...

CITY           SKY/WX    TMP DP  RH WIND       PRES   REMARKS
ST LOUIS INTL  PTCLDY    72  62  71 CALM      30.15R
6HR MIN TEMP:  69; 6HR MAX TEMP:  74;

SPIRIT OF STL  PTCLDY    65  64  97 CALM      30.14R
6HR MIN TEMP:  62; 6HR MAX TEMP:  67;

ST CHARLES     CLEAR     69  63  81 SW3       30.14R
6HR MIN TEMP:  66; 6HR MAX TEMP:  73;


$$
MOZ072>076-082>087-097>100-106>115-301300-
...SOUTH CENTRAL AND SOUTHEAST MISSOURI...

CITY           SKY/WX    TMP DP  RH WIND       PRES   REMARKS
CAPE GIRARDEAU NOT AVBL
FARMINGTON     CLEAR     64  63  94 CALM      30.20R
6HR MIN TEMP:  63; 6HR MAX TEMP:  72;

POPLAR BLUFF   CLEAR     70  65  84 NW3       30.12R
6HR MIN TEMP:  67; 6HR MAX TEMP:  77;

WEST PLAINS    CLEAR     67  62  84 CALM      30.19R
6HR MIN TEMP:  65; 6HR MAX TEMP:  74;


$$


USA.gov is the U.S. government's official web portal to all federal, state and local government web resources and services.